This is the latest recevied weather packets stored in our database for station/object G4KVI. If no packets are shown the sender has not sent any weather packets the latest 10 day(s).
| Time | Temp. | Humidity | Pressure | Rain* | Wind** | Luminosity | Snow |
|---|---|---|---|---|---|---|---|
| 1777300504 | 21.11° C | 33% | 1025.2 hPa | 0 mm | - | 527 W/m² | - |
| 1777300204 | 20.56° C | 34% | 1025.4 hPa | 0 mm | - | 540 W/m² | - |
| 1777299904 | 20.56° C | 34% | 1025.4 hPa | 0 mm | - | 552 W/m² | - |
| 1777299604 | 20.56° C | 34% | 1025.4 hPa | 0 mm | - | 563 W/m² | - |
| 1777299304 | 20.56° C | 33% | 1025.3 hPa | 0 mm | - | 577 W/m² | - |
| 1777299004 | 20.56° C | 33% | 1025.5 hPa | 0 mm | - | 577 W/m² | - |
| 1777298704 | 20.56° C | 32% | 1025.7 hPa | 0 mm | - | 584 W/m² | - |
| 1777298404 | 20.56° C | 29% | 1025.6 hPa | 0 mm | - | 600 W/m² | - |
| 1777298104 | 20.56° C | 30% | 1025.5 hPa | 0 mm | - | 611 W/m² | - |
| 1777297804 | 21.11° C | 28% | 1025.8 hPa | 0 mm | - | 616 W/m² | - |
| 1777297504 | 20.56° C | 31% | 1025.8 hPa | 0 mm | - | 629 W/m² | - |
| 1777297204 | 21.11° C | 30% | 1026 hPa | 0 mm | - | 629 W/m² | - |
| 1777296904 | 21.11° C | 29% | 1025.9 hPa | 0 mm | - | 629 W/m² | - |
| 1777296604 | 20.56° C | 33% | 1025.9 hPa | 0 mm | - | 631 W/m² | - |
| 1777296304 | 20.56° C | 33% | 1025.9 hPa | 0 mm | - | 639 W/m² | - |
| 1777296004 | 20.56° C | 33% | 1025.9 hPa | 0 mm | - | 644 W/m² | - |
| 1777295704 | 20.56° C | 33% | 1025.9 hPa | 0 mm | - | 657 W/m² | - |
| 1777295404 | 20.56° C | 32% | 1026.1 hPa | 0 mm | - | 656 W/m² | - |
| 1777295104 | 20.56° C | 33% | 1026 hPa | 0 mm | - | 666 W/m² | - |
| 1777294804 | 20.56° C | 32% | 1026.2 hPa | 0 mm | - | 672 W/m² | - |
| 1777294504 | 21.11° C | 31% | 1026.2 hPa | 0 mm | - | 675 W/m² | - |
| 1777294204 | 20.56° C | 33% | 1026 hPa | 0 mm | - | 669 W/m² | - |
| 1777293904 | 20.56° C | 32% | 1026.2 hPa | 0 mm | - | 675 W/m² | - |
| 1777293604 | 20° C | 33% | 1026.3 hPa | 0 mm | - | 677 W/m² | - |
| 1777293304 | 20° C | 34% | 1026.2 hPa | 0 mm | - | 683 W/m² | - |
* Rain latest hour (hover to see other rain measurements)
** Current wind speed in m/s (hover to see current wind gust speed)